| time (UTC) | temp F | wind direction | speed MPH | gust MPH | rain 1hr in | rain 24hr in | rain mn in | humidity % | barometer mb |
| 20260509070042 | 53 | 281 | 0.0 | 2.0 | 0.00 | 0.00 | 0.00 | 65 | 1021.9 |
| 20260509064540 | 54 | 281 | 0.0 | 0.0 | 0.00 | 0.00 | 0.00 | 66 | 1021.9 |
| 20260509063041 | 54 | 281 | 0.0 | 1.0 | 0.00 | 0.00 | 0.00 | 67 | 1021.9 |
| 20260509061547 | 55 | 281 | 0.0 | 1.0 | 0.00 | 0.00 | 0.00 | 69 | 1021.9 |
| 20260509060039 | 55 | 281 | 0.0 | 2.0 | 0.00 | 0.00 | 0.00 | 69 | 1021.9 |
| 20260509054548 | 56 | 281 | 0.0 | 2.0 | 0.00 | 0.00 | 0.00 | 69 | 1022.1 |
| 20260509053038 | 57 | 273 | 0.0 | 4.0 | 0.00 | 0.00 | 0.00 | 69 | 1021.9 |
| 20260509051539 | 57 | 250 | 1.0 | 4.0 | 0.00 | 0.00 | 0.00 | 68 | 1021.8 |
| 20260509050049 | 58 | 216 | 1.0 | 4.0 | 0.00 | 0.00 | 0.00 | 68 | 1021.7 |
| 20260509044545 | 58 | 183 | 0.0 | 3.0 | 0.00 | 0.00 | 0.00 | 68 | 1021.7 |
| 20260509043036 | 58 | 182 | 0.0 | 1.0 | 0.00 | 0.00 | 0.00 | 68 | 1021.6 |
| 20260509041536 | 59 | 184 | 0.0 | 2.0 | 0.00 | 0.00 | 0.00 | 68 | 1021.3 |
| 20260509040038 | 59 | 225 | 0.0 | 2.0 | 0.00 | 0.00 | 0.00 | 67 | 1021.3 |
| 20260509034540 | 60 | 256 | 0.0 | 4.0 | 0.00 | 0.00 | 0.00 | 67 | 1021.2 |
| 20260509033035 | 60 | 295 | 0.0 | 3.0 | 0.00 | 0.00 | 0.00 | 66 | 1021.1 |
| 20260509031535 | 61 | 289 | 0.0 | 3.0 | 0.00 | 0.00 | 0.00 | 65 | 1021.0 |
| 20260509030035 | 62 | 299 | 0.0 | 5.0 | 0.00 | 0.00 | 0.00 | 64 | 1020.8 |
| 20260509024533 | 63 | 284 | 1.0 | 4.0 | 0.00 | 0.00 | 0.00 | 61 | 1020.7 |
| 20260509023038 | 64 | 288 | 1.0 | 3.0 | 0.00 | 0.00 | 0.00 | 59 | 1020.6 |
| 20260509021533 | 65 | 273 | 0.0 | 5.0 | 0.00 | 0.00 | 0.00 | 58 | 1020.6 |
| 20260509020031 | 66 | 299 | 0.0 | 3.0 | 0.00 | 0.00 | 0.00 | 56 | 1020.6 |
| 20260509014531 | 65 | 302 | 1.0 | 5.0 | 0.00 | 0.00 | 0.00 | 57 | 1020.7 |
| 20260509013045 | 66 | 265 | 1.0 | 4.0 | 0.00 | 0.00 | 0.00 | 55 | 1020.8 |
| 20260509011533 | 67 | 284 | 1.0 | 6.0 | 0.00 | 0.00 | 0.00 | 55 | 1020.8 |
| 20260509010030 | 67 | 313 | 0.0 | 3.0 | 0.00 | 0.00 | 0.00 | 56 | 1021.0 |
| 20260509004532 | 66 | 272 | 2.0 | 5.0 | 0.00 | 0.00 | 0.00 | 55 | 1021.1 |
| 20260509003032 | 66 | 278 | 2.0 | 8.0 | 0.00 | 0.00 | 0.00 | 54 | 1021.1 |
| 20260509001528 | 67 | 276 | 1.0 | 8.0 | 0.00 | 0.00 | 0.00 | 53 | 1021.1 |
| 20260509000027 | 66 | 226 | 0.0 | 8.0 | 0.00 | 0.00 | 0.00 | 53 | 1021.1 |
| 20260508234527 | 67 | 274 | 3.0 | 6.0 | 0.00 | 0.00 | 0.00 | 51 | 1021.2 |
| 20260508233026 | 67 | 223 | 0.0 | 4.0 | 0.00 | 0.00 | 0.00 | 51 | 1021.3 |
| 20260508231525 | 66 | 292 | 1.0 | 5.0 | 0.00 | 0.00 | 0.00 | 53 | 1021.1 |
| 20260508230045 | 66 | 17 | 0.0 | 4.0 | 0.00 | 0.00 | 0.00 | 55 | 1021.3 |
| 20260508224551 | 67 | 287 | 2.0 | 6.0 | 0.00 | 0.00 | 0.00 | 53 | 1021.3 |
| 20260508223030 | 65 | 291 | 2.0 | 5.0 | 0.00 | 0.00 | 0.00 | 53 | 1021.4 |
| 20260508221520 | 65 | 148 | 2.0 | 5.0 | 0.00 | 0.00 | 0.00 | 54 | 1021.5 |
| 20260508220018 | 64 | 207 | 1.0 | 7.0 | 0.00 | 0.00 | 0.00 | 55 | 1021.6 |
| 20260508214517 | 64 | 202 | 1.0 | 7.0 | 0.00 | 0.00 | 0.00 | 54 | 1021.7 |
| 20260508213015 | 63 | 209 | 1.0 | 4.0 | 0.00 | 0.00 | 0.00 | 55 | 1021.6 |
| 20260508211514 | 63 | 254 | 3.0 | 8.0 | 0.00 | 0.00 | 0.00 | 54 | 1021.7 |
| 20260508210010 | 62 | 157 | 2.0 | 7.0 | 0.00 | 0.00 | 0.00 | 55 | 1021.6 |
| 20260508204516 | 61 | 243 | 2.0 | 9.0 | 0.00 | 0.00 | 0.00 | 54 | 1021.6 |
| 20260508203007 | 61 | 182 | 2.0 | 7.0 | 0.00 | 0.00 | 0.00 | 54 | 1021.7 |
| 20260508201504 | 60 | 301 | 1.0 | 9.0 | 0.00 | 0.00 | 0.00 | 54 | 1021.8 |
| 20260508200004 | 60 | 192 | 1.0 | 5.0 | 0.00 | 0.00 | 0.00 | 55 | 1021.9 |
| 20260508194601 | 59 | 174 | 3.0 | 8.0 | 0.00 | 0.00 | 0.00 | 58 | 1022.0 |
| 20260508193134 | 59 | 294 | 1.0 | 7.0 | 0.00 | 0.00 | 0.00 | 57 | 1022.1 |
| 20260508191558 | 58 | 117 | 1.0 | 6.0 | 0.00 | 0.00 | 0.00 | 59 | 1022.1 |
| 20260508190058 | 57 | 216 | 2.0 | 7.0 | 0.00 | 0.00 | 0.00 | 61 | 1022.2 |
| 20260508184622 | 56 | 300 | 2.0 | 5.0 | 0.00 | 0.00 | 0.00 | 62 | 1022.3 |
| 20260508183057 | 56 | 309 | 4.0 | 8.0 | 0.00 | 0.00 | 0.00 | 61 | 1022.2 |
| 20260508181550 | 55 | 271 | 2.0 | 7.0 | 0.00 | 0.00 | 0.00 | 63 | 1022.2 |
| 20260508180056 | 54 | 188 | 2.0 | 7.0 | 0.00 | 0.00 | 0.00 | 64 | 1022.1 |
| 20260508174603 | 53 | 229 | 2.0 | 5.0 | 0.00 | 0.00 | 0.00 | 65 | 1022.1 |
| 20260508173044 | 54 | 205 | 2.0 | 8.0 | 0.00 | 0.00 | 0.00 | 64 | 1021.9 |
| 20260508171604 | 52 | 192 | 1.0 | 5.0 | 0.00 | 0.00 | 0.00 | 66 | 1021.8 |
| 20260508170041 | 52 | 294 | 3.0 | 6.0 | 0.00 | 0.00 | 0.00 | 65 | 1021.7 |
| 20260508164539 | 51 | 270 | 2.0 | 6.0 | 0.00 | 0.00 | 0.00 | 65 | 1021.6 |
| 20260508163036 | 51 | 234 | 1.0 | 6.0 | 0.00 | 0.00 | 0.00 | 65 | 1021.5 |
| 20260508161540 | 50 | 222 | 1.0 | 7.0 | 0.00 | 0.00 | 0.00 | 63 | 1021.2 |
| 20260508160036 | 50 | 200 | 2.0 | 7.0 | 0.00 | 0.00 | 0.00 | 63 | 1020.9 |
| 20260508154532 | 50 | 127 | 2.0 | 7.0 | 0.00 | 0.00 | 0.00 | 64 | 1021.2 |
| 20260508153037 | 50 | 138 | 1.0 | 3.0 | 0.00 | 0.00 | 0.00 | 59 | 1021.0 |
| 20260508151539 | 48 | 211 | 0.0 | 2.0 | 0.00 | 0.00 | 0.00 | 53 | 1021.1 |
| 20260508150030 | 48 | 211 | 0.0 | 2.0 | 0.00 | 0.00 | 0.00 | 55 | 1021.1 |
| 20260508144529 | 48 | 210 | 0.0 | 2.0 | 0.00 | 0.00 | 0.00 | 59 | 1021.1 |
| 20260508143030 | 48 | 210 | 0.0 | 2.0 | 0.00 | 0.00 | 0.00 | 59 | 1021.3 |
| 20260508141528 | 48 | 209 | 0.0 | 2.0 | 0.00 | 0.00 | 0.00 | 58 | 1021.1 |
| 20260508140027 | 47 | 207 | 0.0 | 2.0 | 0.00 | 0.00 | 0.00 | 58 | 1021.1 |
| 20260508134523 | 47 | 207 | 0.0 | 4.0 | 0.00 | 0.00 | 0.00 | 58 | 1020.9 |
| 20260508133027 | 46 | 206 | 0.0 | 6.0 | 0.00 | 0.00 | 0.00 | 57 | 1020.6 |
| 20260508131519 | 46 | 232 | 0.0 | 4.0 | 0.00 | 0.00 | 0.00 | 58 | 1020.4 |
| 20260508130017 | 46 | 197 | 1.0 | 7.0 | 0.00 | 0.00 | 0.00 | 58 | 1020.1 |
| 20260508124522 | 46 | 191 | 1.0 | 5.0 | 0.00 | 0.00 | 0.00 | 58 | 1019.9 |
| 20260508123015 | 46 | 232 | 0.0 | 4.0 | 0.00 | 0.00 | 0.00 | 58 | 1019.6 |
| 20260508121512 | 46 | 216 | 0.0 | 4.0 | 0.00 | 0.00 | 0.00 | 58 | 1019.4 |
| 20260508120011 | 46 | 270 | 1.0 | 5.0 | 0.00 | 0.00 | 0.00 | 54 | 1019.3 |
| 20260508114510 | 46 | 238 | 0.0 | 1.0 | 0.00 | 0.00 | 0.00 | 50 | 1019.3 |
| 20260508113009 | 46 | 238 | 0.0 | 1.0 | 0.00 | 0.00 | 0.00 | 42 | 1019.1 |
| 20260508111505 | 46 | 238 | 0.0 | 1.0 | 0.00 | 0.00 | 0.00 | 35 | 1018.8 |
| 20260508110003 | 45 | 238 | 0.0 | 0.0 | 0.00 | 0.00 | 0.00 | 33 | 1018.5 |
| 20260508104601 | 45 | 238 | 0.0 | 0.0 | 0.00 | 0.00 | 0.00 | 34 | 1018.4 |
| 20260508103059 | 45 | 238 | 0.0 | 0.0 | 0.00 | 0.00 | 0.00 | 39 | 1018.3 |
| 20260508101557 | 45 | 238 | 0.0 | 0.0 | 0.00 | 0.00 | 0.00 | 41 | 1018.3 |
| 20260508100054 | 46 | 238 | 0.0 | 1.0 | 0.00 | 0.00 | 0.00 | 41 | 1018.0 |
| 20260508094602 | 46 | 238 | 0.0 | 0.0 | 0.00 | 0.00 | 0.00 | 44 | 1017.9 |
| 20260508093049 | 46 | 238 | 0.0 | 1.0 | 0.00 | 0.00 | 0.00 | 45 | 1017.5 |
| 20260508091609 | 46 | 238 | 0.0 | 0.0 | 0.00 | 0.00 | 0.00 | 48 | 1017.4 |
| 20260508090052 | 46 | 238 | 0.0 | 0.0 | 0.00 | 0.00 | 0.00 | 50 | 1017.5 |
| 20260508084543 | 47 | 238 | 0.0 | 0.0 | 0.00 | 0.00 | 0.00 | 53 | 1017.4 |
| 20260508083041 | 47 | 238 | 0.0 | 0.0 | 0.00 | 0.00 | 0.00 | 55 | 1017.3 |
| 20260508081545 | 47 | 238 | 0.0 | 0.0 | 0.00 | 0.00 | 0.00 | 58 | 1017.1 |
| 20260508080041 | 48 | 238 | 0.0 | 0.0 | 0.00 | 0.00 | 0.00 | 62 | 1017.0 |
| 20260508074531 | 49 | 238 | 0.0 | 0.0 | 0.00 | 0.00 | 0.00 | 63 | 1017.1 |
| 20260508073034 | 49 | 238 | 0.0 | 0.0 | 0.00 | 0.00 | 0.00 | 65 | 1017.0 |
| 20260508071531 | 50 | 238 | 0.0 | 1.0 | 0.00 | 0.00 | 0.00 | 66 | 1016.9 |